FW2168 Weather Reports


time (UTC)temp
F
wind
direction
speed
knots
gust
knots
rain 1hr
in
rain 24hr
in
rain mn
in
humidity
%
barometer
mb
20260508014535 62 313 4.3 5.2 0.00 0.00 0.00 41 1008.9
20260508013018 63 315 5.2 7.8 0.00 0.00 0.00 39 1008.8
20260508011520 65 302 4.3 7.8 0.00 0.00 0.00 36 1008.6
20260508010025 67 329 5.2 9.6 0.00 0.00 0.00 35 1008.3
20260508004522 68 302 6.1 11.3 0.00 0.00 0.00 33 1008.4
20260508003036 70 319 7.0 11.3 0.00 0.00 0.00 33 1008.2
20260508001512 71 294 6.1 11.3 0.00 0.00 0.00 39 1007.9
20260508000012 71 236 2.6 6.1 0.00 0.00 0.00 42 1007.9
20260507234510 68 206 3.5 7.0 0.00 0.00 0.00 41 1008.1
20260507233009 68 249 4.3 10.4 0.00 0.00 0.00 42 1008.1
20260507231509 69 267 4.3 16.5 0.00 0.00 0.00 41 1008.3
20260507230013 70 221 3.5 12.2 0.00 0.00 0.00 38 1008.1
20260507224509 70 259 7.8 13.9 0.00 0.00 0.00 38 1008.4
20260507223005 71 223 3.5 12.2 0.00 0.00 0.00 39 1008.4
20260507221502 70 236 5.2 14.8 0.00 0.00 0.00 41 1008.8
20260507214604 69 235 10.4 19.1 0.00 0.00 0.00 38 1009.3
20260507213056 69 275 8.7 17.4 0.00 0.00 0.00 39 1009.5
20260507211620 69 242 7.0 12.2 0.00 0.00 0.00 43 1009.6
20260507210054 67 203 7.0 16.5 0.00 0.00 0.00 41 1009.9
20260507204559 67 182 6.1 13.0 0.00 0.00 0.00 42 1010.4
20260507203049 69 277 10.4 20.0 0.00 0.00 0.00 40 1010.4
20260507201559 68 196 8.7 13.9 0.00 0.00 0.00 42 1010.6
20260507200058 69 252 12.2 20.0 0.00 0.00 0.00 40 1010.8
20260507194542 68 231 7.0 16.5 0.00 0.00 0.00 42 1011.0
20260507193041 68 244 9.6 16.5 0.00 0.00 0.00 41 1010.9
20260507191546 67 225 8.7 16.5 0.00 0.00 0.00 41 1011.2
20260507190037 67 244 7.0 17.4 0.00 0.00 0.00 46 1011.4
20260507184533 66 245 7.0 16.5 0.00 0.00 0.00 46 1011.5
20260507183031 65 263 4.3 17.4 0.00 0.00 0.00 44 1011.5
20260507181528 65 238 9.6 14.8 0.00 0.00 0.00 46 1011.8
20260507180025 64 252 8.7 15.6 0.00 0.00 0.00 49 1012.0
20260507174523 65 245 11.3 17.4 0.00 0.00 0.00 47 1012.3
20260507173019 64 223 7.0 13.0 0.00 0.00 0.00 49 1012.4
20260507171516 63 236 9.6 17.4 0.00 0.00 0.00 51 1012.7
20260507170013 62 242 8.7 16.5 0.00 0.00 0.00 54 1013.1
20260507164510 61 254 5.2 14.8 0.00 0.00 0.00 55 1013.3
20260507163007 61 269 7.8 15.6 0.00 0.00 0.00 56 1013.6
20260507161504 60 217 7.8 13.9 0.00 0.00 0.00 57 1013.5
20260507160109 60 296 6.1 13.9 0.00 0.00 0.00 61 1013.7
20260507154556 59 216 6.1 13.0 0.00 0.00 0.00 59 1014.0
20260507153058 58 267 7.8 14.8 0.00 0.00 0.00 61 1014.3
20260507151547 58 244 7.0 13.0 0.00 0.00 0.00 63 1014.3
20260507150044 57 276 7.8 13.9 0.00 0.00 0.00 64 1014.3
20260507144539 56 293 8.7 14.8 0.00 0.00 0.00 65 1014.4
20260507143036 55 240 9.6 13.9 0.00 0.00 0.00 66 1014.5
20260507141536 54 244 7.8 13.9 0.00 0.00 0.00 69 1014.4
20260507140030 53 228 5.2 15.6 0.00 0.00 0.00 72 1014.5
20260507134527 51 238 7.8 13.9 0.00 0.00 0.00 75 1014.6
20260507133022 49 250 4.3 10.4 0.00 0.00 0.00 77 1014.7
20260507131516 47 227 4.3 8.7 0.00 0.00 0.00 79 1014.7
20260507130011 45 232 2.6 7.0 0.00 0.00 0.00 80 1015.0
20260507124513 43 196 3.5 6.1 0.00 0.00 0.00 80 1015.0
20260507123003 42 225 3.5 7.0 0.00 0.00 0.00 80 1015.0
20260507121559 41 208 1.7 5.2 0.00 0.00 0.00 82 1014.8
20260507120056 38 194 2.6 5.2 0.00 0.00 0.00 84 1014.7
20260507114553 37 175 2.6 5.2 0.00 0.00 0.00 83 1014.6
20260507113051 37 182 3.5 6.1 0.00 0.00 0.00 83 1014.7
20260507111549 37 192 3.5 6.1 0.00 0.00 0.00 81 1014.7
20260507110051 37 180 2.6 5.2 0.00 0.00 0.00 81 1014.6
20260507104544 37 178 2.6 5.2 0.00 0.00 0.00 80 1014.6
20260507103042 37 192 2.6 5.2 0.00 0.00 0.00 79 1014.8
20260507101557 38 175 1.7 4.3 0.00 0.00 0.00 78 1014.8
20260507100038 38 177 1.7 5.2 0.00 0.00 0.00 77 1014.9
20260507094532 38 176 2.6 4.3 0.00 0.00 0.00 74 1015.1
20260507093033 39 188 1.7 5.2 0.00 0.00 0.00 72 1015.1
20260507091549 40 216 1.7 4.3 0.00 0.00 0.00 70 1015.1
20260507090028 41 179 3.5 6.1 0.00 0.00 0.00 70 1015.1
20260507084528 40 209 2.6 6.1 0.00 0.00 0.00 70 1015.3
20260507083026 41 195 2.6 6.1 0.00 0.00 0.00 69 1015.5
20260507081534 40 196 2.6 5.2 0.00 0.00 0.00 71 1015.4
20260507080024 39 168 2.6 5.2 0.00 0.00 0.00 74 1015.4
20260507074521 40 189 2.6 4.3 0.00 0.00 0.00 73 1015.7
20260507073018 39 188 1.7 4.3 0.00 0.00 0.00 74 1015.9
20260507071516 38 186 1.7 4.3 0.00 0.00 0.00 77 1015.9
20260507070015 38 152 1.7 2.6 0.00 0.00 0.00 76 1016.0
20260507064514 39 151 1.7 2.6 0.00 0.00 0.00 74 1016.3
20260507063008 40 177 1.7 2.6 0.00 0.00 0.00 72 1016.6
20260507061520 40 177 1.7 2.6 0.00 0.00 0.00 72 1016.4
20260507060005 40 177 0.9 2.6 0.00 0.00 0.00 70 1016.6
20260507054502 41 172 0.9 2.6 0.00 0.00 0.00 69 1016.9
20260507053101 41 160 1.7 3.5 0.00 0.00 0.00 68 1017.0
20260507051558 42 160 0.9 2.6 0.00 0.00 0.00 65 1016.9
20260507050056 42 160 0.9 2.6 0.00 0.00 0.00 65 1017.0
20260507044556 42 160 1.7 3.5 0.00 0.00 0.00 64 1017.0
20260507043054 43 185 0.9 1.7 0.00 0.00 0.00 60 1016.9
20260507041553 45 178 1.7 3.5 0.00 0.00 0.00 57 1017.1
20260507040055 44 186 1.7 3.5 0.00 0.00 0.00 56 1017.3
20260507034553 43 173 1.7 3.5 0.00 0.00 0.00 58 1017.3
20260507033052 46 218 0.0 0.0 0.00 0.00 0.00 51 1017.2
20260507031551 47 218 0.0 1.7 0.00 0.00 0.00 50 1017.4
20260507030058 46 218 0.9 2.6 0.00 0.00 0.00 52 1017.3
20260507024551 46 218 1.7 2.6 0.00 0.00 0.00 51 1017.2
20260507023051 47 218 0.9 2.6 0.00 0.00 0.00 50 1017.2
20260507021607 48 279 0.0 0.0 0.00 0.00 0.00 47 1017.0
20260507020058 49 279 0.0 0.0 0.00 0.00 0.00 45 1017.0